Showing default

FR 1, 1814

Orbit data source: Space-Track

FR 1, 1814 is a payload satellite owned by CNES (FR) in LEO that was launched on Mon, 06 Dec 1965 UTC via an SCOUT X-4 launch vehicle from the Air Force Western Test Range (AFWTR). Payload-class satellites include a variety of spacecraft equipped with specific instruments for various scientific and technological missions. These include communications satellites like Starlink; space stations such as the ISS; scientific satellites like the Hubble; Earth observation satellites from companies like Planet Labs, Umbra, and HawkEye 360; GPS; miniature CubeSats for education and research; and military/defense satellites.

Loading next visibility...
Identifier
1814, 1965-101A
Orbit
LEO
Last TLE update
14 hours ago
Origin
Manufacturer
Nord
Mission
Civil Science
Bus & Motor
FR, Unknown motor
Mass
62 kg wet, 62 kg dry
Launch date (UTC)
1965-12-06 (59 years ago)
Launch vehicle
SCOUT X-4
Launch site
Air Force Western Test Range (AFWTR)
Object type
Payload
Rocket body
Debris
Shape & HBR
Poly + 4 Ant, 4.3 m
Radar Cross Section
1.303 m², Medium (>0.1 m² and < 1m²)

Expand to show TLE details & history

TLE from 14 hours ago
0 FR 1
1  1814U 65101A   25128.67608054  .00001210  00000-0  20107-3 0  9998
2  1814  75.8655 328.5843 0004460  28.9334 331.2094 14.70738608 17642
Epoch: 2025-05-08T16:13Z
Definitive object data (Epoch: 2025-05-08T16:13:33.358Z)
Latitude
-0.00002°
Longitude
-141.54786°
Altitude
658.714 km
Speed
7.53 km/s
True Right ascension
21h 54m 20s
True Declination
0° 00' 00"
Sunlit
Object was in daylight at TLE epoch
Visualization TLE readout
Latitude
56.65771°
Longitude
15.0996°
Altitude
668.108 km
Speed
7.529 km/s
Apparent Right ascension
04h 40m 42s
Apparent Declination
16° 46' 09"
Sunlit
Object is in daylight
Visualization observer readout
Local Sidereal Time
13:58:42
Azimuth
317.912° NNW
Elevation
-21.919°
Doppler factor
1
Orbital elements
Apogee altitude
659.284 km
Perigee altitude
653.009 km
Semi-major axis
7,034.284 km
Eccentricity
0.000446
Inclination
75.8655°
RAAN
328.5843°
Arg. of periapsis
28.9334°
True anomaly
331.18477°
Mean anomaly
331.2094°
Eccentric anomaly
331.19709°
Mean motion
3.67886 °/min
BSTAR
0.00020107
Orbital period
97.86 mins
Loading maneuver chart data...
Loading SW <> Apogee altitude chart data...
Loading historical data...
Loading historical data...
Loading historical data...
Loading historical data...
Loading historical data...
Loading historical data...
Loading historical data...

FR 1 Visibility forecast

Observer location: undefined°, undefined°

Span
Click to sort rows by Start time (UTC) header in descending order
Start Az.
Max El. time (UTC)
Max El. Az.
Max El.
End time (UTC)
End Az.
7 mins2025-05-09 13:33:58.496Z154.042° SSE2025-05-09 13:37:58.496Z91.357° ESE24.306°2025-05-09 13:40:58.496Z45.091° ENE
6 mins2025-05-09 15:14:58.496Z253.702° W2025-05-09 15:16:58.496Z291.834° WNW24.571°2025-05-09 15:20:58.496Z352.767° N
6 mins2025-05-09 23:48:58.496Z21.922° NNE2025-05-09 23:50:58.496Z56.035° ENE23.376°2025-05-09 23:54:58.496Z120.031° SE
6 mins2025-05-10 01:27:58.496Z311.995° NW2025-05-10 01:30:58.496Z258.239° W25.684°2025-05-10 01:33:58.496Z208.755° SW
|